Tracking 17925 objects as of 24-January-2017
HD Live streaming from Space Station
objects crossing your sky now

SCOUT X-4 DEB

Track SCOUT X-4 DEB now!
10-day predictions


NORAD ID: 2088
Int'l Code: 1965-093D
Perigee: 720.1 km
Apogee: 720.1 km
Inclination: 59.7 °
Period: 99.0 minutes
Semi major axis: 7091 km
RCS: 0.0298 m2 (small)
Launch date: November 19, 1965
Source: United States (US)
Launch site: WALLOPS ISLAND (WLPIS)

Note: This is SATELLITE DEBRIS
Your satellite tracking list
Your tracking list is empty





NASA's NSSDC Master Catalog

Two Line Element Set (TLE):
1 02088U 65093D   17022.74099908  .00000052  00000-0  49194-4 0  9997
2 02088  59.7183 252.3555 0094837  93.8595 267.3298 14.53887756674839
Source of the keplerian elements: AFSPC